Miscellaneous Local Product
Issued by NWS Hastings, NE

Home | Current Version | Previous Version | Graphics & Text | Print | Product List | Glossary On
Versions: 1 2 3 4 5 6 7 8 9 10 11 12 13 14 15 16 17 18 19 20 21 22 23 24 25 26 27 28 29 30 31 32 33 34 35 36 37 38 39 40 41 42 43 44 45 46 47 48 49 50
000
AXUS43 KGID 260802
MISGRI

GID CWA HOURLY WEATHER ROUNDUP
NATIONAL WEATHER SERVICE HASTINGS NE
300 AM CDT WED JUL 26 2017

NOTE: "FAIR" INDICATES FEW OR NO CLOUDS BELOW 12,000 FEET WITH NO
SIGNIFICANT WEATHER AND/OR OBSTRUCTIONS TO VISIBILITY.

...SOUTH CENTRAL NEBRASKA...

CITY           SKY/WX    TMP DP  RH WIND       PRES   REMARKS
GRAND ISLAND   LGT RAIN  78  72  81 SW15G22   29.94R
HASTINGS       CLOUDY    80  67  64 S9        29.95R
KEARNEY        TSTM      76  71  85 S15       29.99R
ORD            LGT RAIN  68  65  90 NE8       29.98F
YORK           CLOUDY    81  70  69 S14G21    29.89F
AURORA         CLOUDY    81  68  65 S13G22    29.89F
LEXINGTON      RAIN      75  69  82 SE10G18   29.93S
HOLDREGE       TSTM      72  67  86 SE17      29.95F
HEBRON         CLOUDY    82  70  66 S16       29.92F

...NEBRASKA PANHANDLE...

CITY           SKY/WX    TMP DP  RH WIND       PRES   REMARKS
CHADRON        CLOUDY    72  56  57 N10       30.08S
ALLIANCE       CLOUDY    69  66  90 N16G22    30.06S
SCOTTSBLUFF    CLOUDY    74  61  63 N6        30.10S
SIDNEY         CLOUDY    70  62  76 N16G24    30.08R

...WESTERN AND NORTH CENTRAL NEBRASKA...

CITY           SKY/WX    TMP DP  RH WIND       PRES   REMARKS
VALENTINE      CLOUDY    70  66  87 N9        29.95F
AINSWORTH      LGT RAIN  67  67 100 SE13      29.95F
ONEILL         RAIN      69  69 100 S7        30.02F
BROKEN BOW     CLOUDY    69  66  90 NE10G21   29.99R
IMPERIAL       MOCLDY    75  62  64 MISG      29.94R
NORTH PLATTE   CLOUDY    71  67  87 NE21G29   29.96R
MCCOOK         CLOUDY    76  70  82 E8        29.89F

...EASTERN NEBRASKA...

CITY           SKY/WX    TMP DP  RH WIND       PRES   REMARKS
NORFOLK        RAIN      71  69  93 N13G24    30.00R FOG
SO SIOUX CITY  CLOUDY    78  72  81 N8        29.96S
TEKAMAH        CLOUDY    79  73  82 SE8       29.91F
COLUMBUS       CLOUDY    83  70  64 W15G25    29.95R THUNDER
ALBION         CLOUDY    72  70  95 NE15      29.98S
OMAHA EPPLEY   CLOUDY    83  73  72 S14       29.93F
OFFUTT AFB     CLEAR     80  73  80 SE13      29.93F
MILLARD        CLOUDY    83  74  76 SE8       29.93F
LINCOLN        CLOUDY    81  70  69 S13       29.92F
NEBRASKA CITY  CLOUDY    79  74  86 S12       29.96F
BEATRICE       CLOUDY    82  71  68 S12       29.95R
FALLS CITY     CLOUDY    78  71  79 S9        29.95F

...NORTHERN KANSAS...

CITY           SKY/WX    TMP DP  RH WIND       PRES   REMARKS
GOODLAND       CLOUDY    73  62  68 W8        29.97S
HILL CITY      CLOUDY    84  66  54 S16G26    29.90S
NORTON         MOSUNNY   75  64  69 E8        29.90F
PHILLIPSBURG   RAIN      77  70  78 SE9       29.92F
SMITH CENTER     N/A     81  64  57 W12       29.97R
HAYS           CLOUDY    84  68  58 S21       29.92S
RUSSELL        CLOUDY    84  66  54 S20G25    29.91S
CONCORDIA      CLOUDY    81  70  69 S13       29.92F
SALINA         PTCLDY    86  70  58 S16G29    29.93S HX  90
TOPEKA         PTCLDY    80  73  79 S8        29.98F



USA.gov is the U.S. government's official web portal to all federal, state and local government web resources and services.